VIR671 EGLL-TBPB

Flight info

Callsign VIR671
Flight time N/A
Altitude 34000
Route GASGU N514 ADKIK DCT JOZMA DCT GAPLI/M082F340 DCT OMOKO DCT 44N020W/M082F360 37N030W 30N040W/M082F380 27N043W 25N045W 20N050W DCT KLUKE/N0473F380 DCT 16N055W DCT BGI
Aircraft A339/H-SADE1E2E3GHIJ3J5M1P2RWXY/LB2D1

Departure

Time N/A
Airport London Heathrow Airport (EGLL)

Arrival

Time 2026-04-29 20:52
Airport Grantley Adams International Airport (TBPB)
Time Latitude Longitude Altitude Speed Heading
2026-04-29 15:21 38.51913 -28.09214 33769 ft 473 kts 225°
2026-04-29 15:21 38.49599 -28.12200 33766 ft 473 kts 225°
2026-04-29 15:22 38.44969 -28.18183 33760 ft 474 kts 226°
2026-04-29 15:22 38.40340 -28.24160 33768 ft 474 kts 226°
2026-04-29 15:23 38.35704 -28.30132 33784 ft 474 kts 226°
2026-04-29 15:23 38.31056 -28.36111 33838 ft 474 kts 226°
2026-04-29 15:23 38.28733 -28.39095 33984 ft 474 kts 226°
2026-04-29 15:24 38.26409 -28.42078 34107 ft 474 kts 226°
2026-04-29 15:24 38.24120 -28.45012 34232 ft 474 kts 226°
2026-04-29 15:24 38.21794 -28.47992 34356 ft 473 kts 226°
2026-04-29 15:24 38.19475 -28.50962 34477 ft 473 kts 226°
2026-04-29 15:25 38.17152 -28.53932 34595 ft 473 kts 226°
2026-04-29 15:25 38.12504 -28.59861 34807 ft 473 kts 226°
2026-04-29 15:25 38.10182 -28.62818 34944 ft 473 kts 226°
2026-04-29 15:26 38.07861 -28.65771 35052 ft 472 kts 226°
2026-04-29 15:26 38.05540 -28.68720 35159 ft 472 kts 226°
2026-04-29 15:26 38.03213 -28.71676 35268 ft 472 kts 226°
2026-04-29 15:26 38.00892 -28.74622 35384 ft 472 kts 226°
2026-04-29 15:27 37.98574 -28.77561 35483 ft 472 kts 226°
2026-04-29 15:27 37.96252 -28.80497 35636 ft 471 kts 227°
2026-04-29 15:27 37.93938 -28.83410 35865 ft 467 kts 227°
2026-04-29 15:27 37.91637 -28.86304 36034 ft 466 kts 227°
2026-04-29 15:28 37.89339 -28.89195 36109 ft 466 kts 227°
2026-04-29 15:28 37.84738 -28.94986 36295 ft 466 kts 228°
2026-04-29 15:29 37.80136 -29.00780 36474 ft 466 kts 228°
2026-04-29 15:29 37.75536 -29.06561 36750 ft 464 kts 228°
2026-04-29 15:30 37.70994 -29.12255 37167 ft 457 kts 228°
2026-04-29 15:30 37.66507 -29.17874 37320 ft 458 kts 228°
2026-04-29 15:31 37.61983 -29.23533 37477 ft 458 kts 229°
2026-04-29 15:31 37.57457 -29.29184 37617 ft 458 kts 229°
2026-04-29 15:32 37.52922 -29.34828 37752 ft 458 kts 229°
2026-04-29 15:32 37.48376 -29.40472 37777 ft 458 kts 229°
2026-04-29 15:33 37.43840 -29.46100 37777 ft 457 kts 229°
2026-04-29 15:33 37.39310 -29.51719 37776 ft 457 kts 229°
2026-04-29 15:34 37.34771 -29.57325 37778 ft 457 kts 229°
2026-04-29 15:34 37.30223 -29.62931 37780 ft 458 kts 229°
2026-04-29 15:35 37.25675 -29.68536 37784 ft 458 kts 229°
2026-04-29 15:35 37.21156 -29.74098 37785 ft 457 kts 229°
2026-04-29 15:36 37.16614 -29.79681 37784 ft 457 kts 229°
2026-04-29 15:36 37.12041 -29.85286 37793 ft 457 kts 229°
2026-04-29 15:37 37.07523 -29.90810 37794 ft 456 kts 230°
2026-04-29 15:37 37.02996 -29.96336 37778 ft 453 kts 230°
2026-04-29 15:38 36.98510 -30.01882 37767 ft 451 kts 234°
2026-04-29 15:38 36.94816 -30.08077 37774 ft 440 kts 242°
2026-04-29 15:39 36.91292 -30.14363 37777 ft 443 kts 240°
2026-04-29 15:39 36.87668 -30.20465 37777 ft 443 kts 239°
2026-04-29 15:40 36.83915 -30.26617 37775 ft 442 kts 239°
2026-04-29 15:40 36.80159 -30.32749 37776 ft 441 kts 239°
2026-04-29 15:41 36.76434 -30.38832 37774 ft 441 kts 239°
2026-04-29 15:41 36.72708 -30.44909 37774 ft 440 kts 239°
2026-04-29 15:42 36.68991 -30.50958 37773 ft 439 kts 239°
2026-04-29 15:42 36.65269 -30.57000 37772 ft 439 kts 239°
2026-04-29 15:43 36.61552 -30.63023 37771 ft 438 kts 239°
2026-04-29 15:43 36.57851 -30.69006 37772 ft 437 kts 240°
2026-04-29 15:44 36.54142 -30.74997 37770 ft 437 kts 239°
2026-04-29 15:44 36.50421 -30.80990 37764 ft 437 kts 240°
2026-04-29 15:45 36.46714 -30.86956 37770 ft 437 kts 240°
2026-04-29 15:45 36.43002 -30.92924 37773 ft 436 kts 240°
2026-04-29 15:46 36.39297 -30.98870 37775 ft 436 kts 240°
2026-04-29 15:46 36.35578 -31.04824 37777 ft 435 kts 240°
2026-04-29 15:47 36.31841 -31.10798 37781 ft 435 kts 240°
2026-04-29 15:47 36.28156 -31.16679 37808 ft 433 kts 240°
2026-04-29 15:48 36.24457 -31.22574 37799 ft 433 kts 241°
2026-04-29 15:48 36.20757 -31.28457 37805 ft 433 kts 241°
2026-04-29 15:49 36.17059 -31.34326 37809 ft 432 kts 241°
2026-04-29 15:49 36.13365 -31.40179 37811 ft 431 kts 241°
2026-04-29 15:50 36.09678 -31.46019 37813 ft 430 kts 242°
2026-04-29 15:50 36.05996 -31.51845 37816 ft 429 kts 242°
2026-04-29 15:51 36.02316 -31.57647 37812 ft 428 kts 242°
2026-04-29 15:51 35.98647 -31.63425 37808 ft 427 kts 242°
2026-04-29 15:52 35.94997 -31.69149 37803 ft 423 kts 242°
2026-04-29 15:52 35.91976 -31.73895 37803 ft 424 kts 242°
2026-04-29 15:53 35.88335 -31.79608 37804 ft 423 kts 242°
2026-04-29 15:53 35.84698 -31.85307 37804 ft 423 kts 243°
2026-04-29 15:54 35.81058 -31.91004 37812 ft 423 kts 243°
2026-04-29 15:54 35.77408 -31.96699 37815 ft 423 kts 243°
2026-04-29 15:55 35.73761 -32.02391 37816 ft 423 kts 242°
2026-04-29 15:55 35.70109 -32.08078 37813 ft 423 kts 242°
2026-04-29 15:56 35.66455 -32.13759 37814 ft 424 kts 242°
2026-04-29 15:56 35.62792 -32.19442 37814 ft 424 kts 242°
2026-04-29 15:57 35.59124 -32.25125 37816 ft 424 kts 242°
2026-04-29 15:57 35.55457 -32.30796 37814 ft 424 kts 242°
2026-04-29 15:58 35.51786 -32.36459 37814 ft 424 kts 242°
2026-04-29 15:58 35.48115 -32.42116 37820 ft 424 kts 242°
2026-04-29 15:59 35.44441 -32.47769 37816 ft 423 kts 242°
2026-04-29 15:59 35.40764 -32.53419 37819 ft 424 kts 242°
2026-04-29 16:00 35.37077 -32.59072 37825 ft 423 kts 242°
2026-04-29 16:00 35.33397 -32.64703 37825 ft 423 kts 242°
2026-04-29 16:01 35.29716 -32.70338 37826 ft 424 kts 242°
2026-04-29 16:01 35.26025 -32.75964 37828 ft 424 kts 242°
2026-04-29 16:02 35.22331 -32.81587 37827 ft 424 kts 242°
2026-04-29 16:02 35.18636 -32.87208 37822 ft 424 kts 242°
2026-04-29 16:03 35.14938 -32.92827 37824 ft 424 kts 242°
2026-04-29 16:03 35.11239 -32.98434 37822 ft 424 kts 242°
2026-04-29 16:04 35.07539 -33.04034 37822 ft 424 kts 242°
2026-04-29 16:04 35.03856 -33.09599 37824 ft 424 kts 242°
2026-04-29 16:05 35.00149 -33.15193 37825 ft 424 kts 242°
2026-04-29 16:05 34.96442 -33.20776 37834 ft 424 kts 242°
2026-04-29 16:06 34.92730 -33.26357 37835 ft 424 kts 242°
2026-04-29 16:06 34.89017 -33.31932 37832 ft 424 kts 242°
2026-04-29 16:07 34.85302 -33.37500 37829 ft 424 kts 242°
2026-04-29 16:07 34.81583 -33.43072 37833 ft 424 kts 242°
2026-04-29 16:08 34.77862 -33.48633 37840 ft 423 kts 241°
2026-04-29 16:08 34.74141 -33.54181 37837 ft 423 kts 241°
2026-04-29 16:09 34.70417 -33.59731 37835 ft 423 kts 241°
2026-04-29 16:09 34.66697 -33.65267 37830 ft 423 kts 241°
2026-04-29 16:10 34.62992 -33.70766 37832 ft 423 kts 241°
2026-04-29 16:10 34.59264 -33.76287 37839 ft 423 kts 241°
2026-04-29 16:11 34.55534 -33.81807 37842 ft 423 kts 241°
2026-04-29 16:11 34.51798 -33.87329 37841 ft 423 kts 241°
2026-04-29 16:12 34.48057 -33.92846 37842 ft 423 kts 241°
2026-04-29 16:12 34.44312 -33.98364 37842 ft 423 kts 241°
2026-04-29 16:13 34.40571 -34.03871 37843 ft 423 kts 240°
2026-04-29 16:13 34.36827 -34.09371 37842 ft 423 kts 240°
2026-04-29 16:14 34.33075 -34.14867 37825 ft 423 kts 240°
2026-04-29 16:14 34.29325 -34.20357 37826 ft 423 kts 240°
2026-04-29 16:15 34.25572 -34.25845 37825 ft 423 kts 240°
2026-04-29 16:15 34.21819 -34.31323 37828 ft 423 kts 240°
2026-04-29 16:16 34.18062 -34.36798 37823 ft 423 kts 240°
2026-04-29 16:16 34.14307 -34.42258 37832 ft 423 kts 240°
2026-04-29 16:17 34.10551 -34.47716 37828 ft 423 kts 240°
2026-04-29 16:17 34.06790 -34.53170 37831 ft 423 kts 240°
2026-04-29 16:18 34.03034 -34.58614 37838 ft 422 kts 240°
2026-04-29 16:18 33.99271 -34.64057 37833 ft 422 kts 240°
2026-04-29 16:19 33.95510 -34.69493 37829 ft 422 kts 240°
2026-04-29 16:19 33.91742 -34.74928 37825 ft 423 kts 240°
2026-04-29 16:20 33.87967 -34.80360 37825 ft 423 kts 239°
2026-04-29 16:20 33.84192 -34.85793 37840 ft 423 kts 239°
2026-04-29 16:21 33.80403 -34.91232 37839 ft 423 kts 239°
2026-04-29 16:21 33.76596 -34.96689 37839 ft 423 kts 239°
2026-04-29 16:22 33.72803 -35.02117 37841 ft 424 kts 239°
2026-04-29 16:22 33.69008 -35.07535 37837 ft 424 kts 239°
2026-04-29 16:23 33.65209 -35.12953 37846 ft 424 kts 239°
2026-04-29 16:23 33.61414 -35.18357 37843 ft 423 kts 239°
2026-04-29 16:24 33.57620 -35.23754 37841 ft 423 kts 239°
2026-04-29 16:24 33.53794 -35.29188 37841 ft 423 kts 239°
2026-04-29 16:25 33.50018 -35.34542 37845 ft 423 kts 239°
2026-04-29 16:25 33.46190 -35.39962 37846 ft 423 kts 239°
2026-04-29 16:26 33.42403 -35.45312 37846 ft 424 kts 238°
2026-04-29 16:26 33.39207 -35.49821 37850 ft 423 kts 238°
2026-04-29 16:27 33.35600 -35.54909 37849 ft 424 kts 238°
2026-04-29 16:27 33.32403 -35.59415 37848 ft 423 kts 238°
2026-04-29 16:28 33.28590 -35.64781 37849 ft 424 kts 238°
2026-04-29 16:28 33.24769 -35.70142 37849 ft 423 kts 238°
2026-04-29 16:29 33.20949 -35.75499 37850 ft 423 kts 238°
2026-04-29 16:29 33.17125 -35.80853 37860 ft 423 kts 238°
2026-04-29 16:30 33.13302 -35.86201 37859 ft 424 kts 238°
2026-04-29 16:30 33.09475 -35.91544 37862 ft 424 kts 238°
2026-04-29 16:31 33.05635 -35.96896 37860 ft 424 kts 238°
2026-04-29 16:31 33.01790 -36.02247 37863 ft 424 kts 238°
2026-04-29 16:32 32.97998 -36.07516 37861 ft 419 kts 238°
2026-04-29 16:32 32.94173 -36.12831 37860 ft 421 kts 237°
2026-04-29 16:33 32.88449 -36.20760 37857 ft 421 kts 237°
2026-04-29 16:33 32.84631 -36.26039 37868 ft 422 kts 237°
2026-04-29 16:34 32.80800 -36.31328 37871 ft 421 kts 237°
2026-04-29 16:34 32.76966 -36.36608 37887 ft 421 kts 237°
2026-04-29 16:35 32.73784 -36.40986 37857 ft 421 kts 237°
2026-04-29 16:35 32.70128 -36.46012 37859 ft 421 kts 237°
2026-04-29 16:36 32.66300 -36.51272 37865 ft 421 kts 237°
2026-04-29 16:36 32.62467 -36.56531 37877 ft 421 kts 237°
2026-04-29 16:37 32.58633 -36.61774 37878 ft 421 kts 237°
2026-04-29 16:37 32.55442 -36.66133 37883 ft 421 kts 237°
2026-04-29 16:38 32.50963 -36.72255 37878 ft 421 kts 237°
2026-04-29 16:38 32.47136 -36.77472 37860 ft 420 kts 237°
2026-04-29 16:39 32.43288 -36.82710 37854 ft 420 kts 237°
2026-04-29 16:39 32.39425 -36.87962 37869 ft 420 kts 236°
2026-04-29 16:40 32.35588 -36.93165 37867 ft 420 kts 236°
2026-04-29 16:40 32.31752 -36.98366 37885 ft 419 kts 236°
2026-04-29 16:41 32.27912 -37.03567 37884 ft 419 kts 236°
2026-04-29 16:41 32.24075 -37.08758 37878 ft 419 kts 236°
2026-04-29 16:42 32.20233 -37.13942 37884 ft 419 kts 236°
2026-04-29 16:42 32.16418 -37.19084 37865 ft 419 kts 236°
2026-04-29 16:43 32.12574 -37.24262 37882 ft 419 kts 236°
2026-04-29 16:43 32.08737 -37.29426 37883 ft 418 kts 236°
2026-04-29 16:44 32.04893 -37.34589 37887 ft 418 kts 236°
2026-04-29 16:44 32.01052 -37.39741 37888 ft 418 kts 235°
2026-04-29 16:45 31.97210 -37.44888 37889 ft 418 kts 235°
2026-04-29 16:45 31.93361 -37.50037 37881 ft 418 kts 235°
2026-04-29 16:46 31.89510 -37.55181 37889 ft 419 kts 235°
2026-04-29 16:46 31.85682 -37.60276 37895 ft 418 kts 235°
2026-04-29 16:47 31.81827 -37.65403 37892 ft 418 kts 235°
2026-04-29 16:47 31.77977 -37.70526 37892 ft 418 kts 235°
2026-04-29 16:48 31.74123 -37.75648 37895 ft 418 kts 235°
2026-04-29 16:48 31.70268 -37.80761 37894 ft 418 kts 235°
2026-04-29 16:49 31.66411 -37.85872 37896 ft 418 kts 235°
2026-04-29 16:49 31.62553 -37.90974 37895 ft 418 kts 235°
2026-04-29 16:50 31.58692 -37.96074 37895 ft 418 kts 235°
2026-04-29 16:50 31.54831 -38.01167 37896 ft 418 kts 234°
2026-04-29 16:51 31.50967 -38.06260 37897 ft 418 kts 234°
2026-04-29 16:51 31.47100 -38.11350 37900 ft 418 kts 234°
2026-04-29 16:52 31.43227 -38.16441 37897 ft 418 kts 234°
2026-04-29 16:52 31.39358 -38.21513 37905 ft 418 kts 234°
2026-04-29 16:53 31.35488 -38.26585 37906 ft 418 kts 234°
2026-04-29 16:53 31.31641 -38.31622 37906 ft 418 kts 234°
2026-04-29 16:54 31.27758 -38.36695 37907 ft 418 kts 234°
2026-04-29 16:54 31.23875 -38.41763 37911 ft 418 kts 234°
2026-04-29 16:55 31.19998 -38.46814 37907 ft 418 kts 234°
2026-04-29 16:55 31.16115 -38.51866 37907 ft 417 kts 234°
2026-04-29 16:56 31.12238 -38.56907 37906 ft 417 kts 234°
2026-04-29 16:56 31.08351 -38.61947 37904 ft 417 kts 234°
2026-04-29 16:57 31.04483 -38.66959 37914 ft 417 kts 234°
2026-04-29 16:57 31.00605 -38.71984 37914 ft 417 kts 234°
2026-04-29 16:58 30.96708 -38.77021 37914 ft 417 kts 234°
2026-04-29 16:58 30.92843 -38.82011 37918 ft 417 kts 234°
2026-04-29 16:59 30.88958 -38.87019 37915 ft 417 kts 234°
2026-04-29 16:59 30.85067 -38.92030 37914 ft 417 kts 234°
2026-04-29 17:00 30.81170 -38.97043 37918 ft 416 kts 234°
2026-04-29 17:00 30.77280 -39.02041 37916 ft 416 kts 234°
2026-04-29 17:01 30.73417 -39.07000 37915 ft 416 kts 234°
2026-04-29 17:01 30.69524 -39.11987 37916 ft 416 kts 234°
2026-04-29 17:02 30.65630 -39.16968 37926 ft 416 kts 233°
2026-04-29 17:02 30.61735 -39.21939 37924 ft 415 kts 233°
2026-04-29 17:03 30.57844 -39.26905 37920 ft 415 kts 233°
2026-04-29 17:03 30.53959 -39.31858 37926 ft 415 kts 233°
2026-04-29 17:04 30.50087 -39.36791 37922 ft 415 kts 233°
2026-04-29 17:04 30.46827 -39.40936 37925 ft 415 kts 233°
2026-04-29 17:05 30.42961 -39.45846 37922 ft 414 kts 233°
2026-04-29 17:05 30.39075 -39.50776 37921 ft 414 kts 233°
2026-04-29 17:06 30.35182 -39.55711 37922 ft 414 kts 233°
2026-04-29 17:06 30.31287 -39.60640 37923 ft 414 kts 233°
2026-04-29 17:07 30.27400 -39.65552 37924 ft 414 kts 233°
2026-04-29 17:07 30.23513 -39.70463 37936 ft 413 kts 233°
2026-04-29 17:08 30.19650 -39.75333 37934 ft 413 kts 233°
2026-04-29 17:08 30.15771 -39.80228 37932 ft 413 kts 233°
2026-04-29 17:09 30.11874 -39.85131 37930 ft 413 kts 233°
2026-04-29 17:09 30.07987 -39.90012 37930 ft 413 kts 233°
2026-04-29 17:10 30.04095 -39.94901 37933 ft 413 kts 233°
2026-04-29 17:10 30.00150 -39.99744 37933 ft 415 kts 231°
2026-04-29 17:11 29.95881 -40.04281 37933 ft 419 kts 227°
2026-04-29 17:11 29.91523 -40.08689 37935 ft 419 kts 228°
2026-04-29 17:12 29.87179 -40.13172 37936 ft 419 kts 229°
2026-04-29 17:12 29.83586 -40.16910 37938 ft 418 kts 229°
2026-04-29 17:13 29.78534 -40.22168 37941 ft 418 kts 229°
2026-04-29 17:13 29.74212 -40.26648 37951 ft 418 kts 229°
2026-04-29 17:14 29.69881 -40.31133 37945 ft 418 kts 228°
2026-04-29 17:14 29.65547 -40.35616 37948 ft 418 kts 228°
2026-04-29 17:15 29.61221 -40.40085 37958 ft 418 kts 228°
2026-04-29 17:15 29.56913 -40.44526 37958 ft 418 kts 228°
2026-04-29 17:16 29.52577 -40.48991 37950 ft 418 kts 228°
2026-04-29 17:16 29.48250 -40.53443 37941 ft 418 kts 228°
2026-04-29 17:17 29.43916 -40.57894 37951 ft 417 kts 228°
2026-04-29 17:17 29.39583 -40.62338 37945 ft 417 kts 228°
2026-04-29 17:18 29.35254 -40.66773 37948 ft 417 kts 228°
2026-04-29 17:18 29.30963 -40.71163 37946 ft 416 kts 228°
2026-04-29 17:19 29.26645 -40.75572 37945 ft 416 kts 227°
2026-04-29 17:19 29.22327 -40.79975 37947 ft 416 kts 227°
2026-04-29 17:20 29.18003 -40.84381 37954 ft 415 kts 227°
2026-04-29 17:20 29.13679 -40.88781 37951 ft 415 kts 227°
2026-04-29 17:21 29.09360 -40.93168 37948 ft 415 kts 227°
2026-04-29 17:21 29.05037 -40.97556 37954 ft 415 kts 227°
2026-04-29 17:22 29.00715 -41.01937 37949 ft 415 kts 227°
2026-04-29 17:22 28.96401 -41.06306 37959 ft 415 kts 227°
2026-04-29 17:23 28.92106 -41.10650 37953 ft 414 kts 227°
2026-04-29 17:23 28.87792 -41.15007 37940 ft 414 kts 227°
2026-04-29 17:24 28.83479 -41.19359 37945 ft 414 kts 227°
2026-04-29 17:24 28.79159 -41.23713 37953 ft 414 kts 227°
2026-04-29 17:25 28.74839 -41.28061 37951 ft 414 kts 227°
2026-04-29 17:25 28.70549 -41.32375 37961 ft 413 kts 227°
2026-04-29 17:26 28.66231 -41.36711 37956 ft 413 kts 227°
2026-04-29 17:26 28.61912 -41.41042 37945 ft 413 kts 227°
2026-04-29 17:27 28.57596 -41.45368 37945 ft 413 kts 227°
2026-04-29 17:27 28.53288 -41.49681 37955 ft 413 kts 227°
2026-04-29 17:28 28.48970 -41.53994 37954 ft 413 kts 227°
2026-04-29 17:28 28.44658 -41.58296 37960 ft 413 kts 227°
2026-04-29 17:29 28.40371 -41.62568 37953 ft 412 kts 227°
2026-04-29 17:29 28.36762 -41.66165 37949 ft 412 kts 226°
2026-04-29 17:30 28.31746 -41.71157 37943 ft 412 kts 226°
2026-04-29 17:30 28.27438 -41.75439 37942 ft 412 kts 226°
2026-04-29 17:31 28.23123 -41.79726 37959 ft 412 kts 226°
2026-04-29 17:31 28.18815 -41.84001 37949 ft 412 kts 226°
2026-04-29 17:32 28.14525 -41.88246 37951 ft 411 kts 226°
2026-04-29 17:32 28.10214 -41.92508 37957 ft 412 kts 226°
2026-04-29 17:33 28.05874 -41.96798 37970 ft 412 kts 226°
2026-04-29 17:33 28.01575 -42.01042 37953 ft 412 kts 226°
2026-04-29 17:34 27.97259 -42.05298 37962 ft 412 kts 226°
2026-04-29 17:34 27.92934 -42.09557 37952 ft 412 kts 226°
2026-04-29 17:35 27.87374 -42.15027 37970 ft 412 kts 226°
2026-04-29 17:36 27.83053 -42.19272 37957 ft 412 kts 226°
2026-04-29 17:36 27.78723 -42.23522 37974 ft 412 kts 226°
2026-04-29 17:37 27.74395 -42.27764 37955 ft 412 kts 226°
2026-04-29 17:37 27.70069 -42.32002 37954 ft 412 kts 226°
2026-04-29 17:38 27.65723 -42.36252 37967 ft 412 kts 226°
2026-04-29 17:38 27.61414 -42.40466 37954 ft 412 kts 226°
2026-04-29 17:39 27.57047 -42.44725 37955 ft 413 kts 226°
2026-04-29 17:39 27.52725 -42.48935 37958 ft 413 kts 226°
2026-04-29 17:40 27.48372 -42.53176 37964 ft 413 kts 226°
2026-04-29 17:40 27.44022 -42.57409 37951 ft 414 kts 226°
2026-04-29 17:41 27.39659 -42.61650 37965 ft 414 kts 226°
2026-04-29 17:41 27.35313 -42.65869 37939 ft 415 kts 226°
2026-04-29 17:42 27.30913 -42.70138 37901 ft 415 kts 226°
2026-04-29 17:42 27.26530 -42.74383 37898 ft 415 kts 226°
2026-04-29 17:43 27.22174 -42.78594 37896 ft 415 kts 226°
2026-04-29 17:43 27.17789 -42.82828 37897 ft 415 kts 226°
2026-04-29 17:44 27.13412 -42.87048 37885 ft 415 kts 226°
2026-04-29 17:44 27.09032 -42.91274 37886 ft 415 kts 226°
2026-04-29 17:45 27.04652 -42.95495 37885 ft 414 kts 226°
2026-04-29 17:45 27.00283 -42.99706 37894 ft 414 kts 227°
2026-04-29 17:46 26.95976 -43.03986 37898 ft 413 kts 228°
2026-04-29 17:46 26.91773 -43.08326 37898 ft 412 kts 229°
2026-04-29 17:47 26.87558 -43.12677 37905 ft 412 kts 228°
2026-04-29 17:47 26.83325 -43.17014 37901 ft 412 kts 228°
2026-04-29 17:48 26.79805 -43.20605 37902 ft 412 kts 228°
2026-04-29 17:48 26.75570 -43.24921 37901 ft 411 kts 228°
2026-04-29 17:49 26.71343 -43.29224 37909 ft 410 kts 228°
2026-04-29 17:49 26.67133 -43.33508 37901 ft 409 kts 228°
2026-04-29 17:50 26.62922 -43.37786 37906 ft 408 kts 228°
2026-04-29 17:50 26.58727 -43.42043 37903 ft 407 kts 228°
2026-04-29 17:51 26.54560 -43.46267 37899 ft 406 kts 229°
2026-04-29 17:51 26.50373 -43.50508 37900 ft 406 kts 229°
2026-04-29 17:52 26.46192 -43.54736 37902 ft 404 kts 229°
2026-04-29 17:52 26.42023 -43.58950 37904 ft 403 kts 229°
2026-04-29 17:53 26.37863 -43.63149 37905 ft 402 kts 229°
2026-04-29 17:53 26.33717 -43.67331 37901 ft 401 kts 229°
2026-04-29 17:54 26.29587 -43.71492 37898 ft 400 kts 229°
2026-04-29 17:54 26.25463 -43.75648 37899 ft 399 kts 229°
2026-04-29 17:55 26.21351 -43.79782 37895 ft 398 kts 229°
2026-04-29 17:55 26.17233 -43.83919 37897 ft 397 kts 229°
2026-04-29 17:56 26.13138 -43.88029 37901 ft 396 kts 229°
2026-04-29 17:56 26.09042 -43.92135 37900 ft 396 kts 229°
2026-04-29 17:57 26.04976 -43.96205 37899 ft 395 kts 229°
2026-04-29 17:57 26.00886 -44.00299 37898 ft 395 kts 229°
2026-04-29 17:58 25.96801 -44.04383 37895 ft 395 kts 229°
2026-04-29 17:58 25.92707 -44.08470 37901 ft 395 kts 229°
2026-04-29 17:59 25.88611 -44.12558 37901 ft 395 kts 228°
2026-04-29 17:59 25.84538 -44.16616 37903 ft 396 kts 228°
2026-04-29 18:00 25.80435 -44.20699 37900 ft 396 kts 228°
2026-04-29 18:00 25.76338 -44.24775 37901 ft 396 kts 228°
2026-04-29 18:01 25.72236 -44.28855 37900 ft 397 kts 228°
2026-04-29 18:01 25.68115 -44.32944 37899 ft 397 kts 228°
2026-04-29 18:02 25.63987 -44.37036 37902 ft 398 kts 228°
2026-04-29 18:02 25.59862 -44.41123 37904 ft 398 kts 228°
2026-04-29 18:03 25.55731 -44.45214 37903 ft 399 kts 228°
2026-04-29 18:03 25.51581 -44.49320 37903 ft 399 kts 228°
2026-04-29 18:04 25.47427 -44.53421 37894 ft 400 kts 228°
2026-04-29 18:04 25.43296 -44.57498 37901 ft 400 kts 228°
2026-04-29 18:05 25.39137 -44.61599 37905 ft 401 kts 228°
2026-04-29 18:05 25.34974 -44.65701 37908 ft 401 kts 228°
2026-04-29 18:06 25.30796 -44.69812 37904 ft 402 kts 228°
2026-04-29 18:06 25.26616 -44.73921 37904 ft 403 kts 228°
2026-04-29 18:07 25.22425 -44.78040 37906 ft 403 kts 228°
2026-04-29 18:07 25.18228 -44.82157 37905 ft 403 kts 228°
2026-04-29 18:08 25.14053 -44.86250 37904 ft 404 kts 228°
2026-04-29 18:08 25.09843 -44.90377 37905 ft 404 kts 228°
2026-04-29 18:09 25.05625 -44.94503 37908 ft 405 kts 228°
2026-04-29 18:09 25.01403 -44.98630 37906 ft 405 kts 228°
2026-04-29 18:10 24.97225 -45.02796 37910 ft 404 kts 230°
2026-04-29 18:10 24.93193 -45.07063 37912 ft 404 kts 230°
2026-04-29 18:11 24.89149 -45.11363 37906 ft 405 kts 230°
2026-04-29 18:11 24.85079 -45.15664 37906 ft 405 kts 230°
2026-04-29 18:12 24.81006 -45.19955 37909 ft 406 kts 230°
2026-04-29 18:12 24.76913 -45.24257 37911 ft 406 kts 230°
2026-04-29 18:13 24.72827 -45.28553 37911 ft 406 kts 230°
2026-04-29 18:13 24.68759 -45.32819 37908 ft 406 kts 230°
2026-04-29 18:14 24.64664 -45.37114 37893 ft 408 kts 230°
2026-04-29 18:14 24.60539 -45.41443 37896 ft 410 kts 229°
2026-04-29 18:15 24.56400 -45.45770 37897 ft 411 kts 229°
2026-04-29 18:15 24.52275 -45.50077 37905 ft 412 kts 229°
2026-04-29 18:16 24.48122 -45.54409 37912 ft 412 kts 229°
2026-04-29 18:16 24.43957 -45.58752 37908 ft 413 kts 229°
2026-04-29 18:17 24.39791 -45.63090 37919 ft 413 kts 229°
2026-04-29 18:17 24.35617 -45.67433 37921 ft 413 kts 229°
2026-04-29 18:18 24.31439 -45.71777 37919 ft 414 kts 229°
2026-04-29 18:18 24.27262 -45.76115 37919 ft 414 kts 229°
2026-04-29 18:19 24.23077 -45.80458 37920 ft 415 kts 229°
2026-04-29 18:19 24.18900 -45.84782 37920 ft 415 kts 228°
2026-04-29 18:20 24.14708 -45.89119 37921 ft 415 kts 229°
2026-04-29 18:20 24.10506 -45.93464 37918 ft 415 kts 228°
2026-04-29 18:21 24.06307 -45.97803 37920 ft 415 kts 228°
2026-04-29 18:21 24.02098 -46.02144 37918 ft 415 kts 228°
2026-04-29 18:22 23.97887 -46.06485 37920 ft 416 kts 228°
2026-04-29 18:22 23.93703 -46.10793 37920 ft 415 kts 228°
2026-04-29 18:23 23.89497 -46.15120 37920 ft 415 kts 228°
2026-04-29 18:23 23.85285 -46.19451 37919 ft 415 kts 228°
2026-04-29 18:24 23.81068 -46.23781 37919 ft 416 kts 228°
2026-04-29 18:24 23.76857 -46.28101 37919 ft 415 kts 228°
2026-04-29 18:25 23.72639 -46.32425 37919 ft 415 kts 228°
2026-04-29 18:25 23.68428 -46.36733 37918 ft 415 kts 228°
2026-04-29 18:26 23.64220 -46.41040 37918 ft 415 kts 228°
2026-04-29 18:26 23.60004 -46.45353 37917 ft 415 kts 228°
2026-04-29 18:27 23.55824 -46.49622 37915 ft 415 kts 228°
2026-04-29 18:27 23.51586 -46.53946 37914 ft 415 kts 228°
2026-04-29 18:28 23.47398 -46.58218 37919 ft 415 kts 228°
2026-04-29 18:28 23.43189 -46.62505 37919 ft 414 kts 228°
2026-04-29 18:29 23.38979 -46.66786 37918 ft 414 kts 228°
2026-04-29 18:29 23.34743 -46.71092 37917 ft 414 kts 228°
2026-04-29 18:30 23.30556 -46.75345 37917 ft 414 kts 228°
2026-04-29 18:30 23.26349 -46.79617 37918 ft 414 kts 228°
2026-04-29 18:31 23.22135 -46.83890 37923 ft 414 kts 228°
2026-04-29 18:31 23.18635 -46.87434 37925 ft 413 kts 228°
2026-04-29 18:32 23.14430 -46.91688 37923 ft 413 kts 228°
2026-04-29 18:32 23.08114 -46.98075 37921 ft 413 kts 228°
2026-04-29 18:33 23.03910 -47.02323 37927 ft 413 kts 228°
2026-04-29 18:33 22.99697 -47.06575 37922 ft 413 kts 228°
2026-04-29 18:34 22.96196 -47.10104 37926 ft 413 kts 228°
2026-04-29 18:34 22.91275 -47.15062 37925 ft 413 kts 228°
2026-04-29 18:35 22.87067 -47.19300 37920 ft 413 kts 228°
2026-04-29 18:35 22.82868 -47.23523 37920 ft 413 kts 228°
2026-04-29 18:36 22.78652 -47.27757 37921 ft 413 kts 228°
2026-04-29 18:36 22.74426 -47.31999 37921 ft 414 kts 228°
2026-04-29 18:37 22.70206 -47.36233 37922 ft 414 kts 228°
2026-04-29 18:37 22.65975 -47.40474 37922 ft 414 kts 227°
2026-04-29 18:38 22.61745 -47.44709 37922 ft 414 kts 227°
2026-04-29 18:38 22.57512 -47.48945 37924 ft 415 kts 227°
2026-04-29 18:39 22.53296 -47.53159 37927 ft 415 kts 227°
2026-04-29 18:39 22.49048 -47.57401 37919 ft 415 kts 227°
2026-04-29 18:40 22.44803 -47.61637 37922 ft 416 kts 227°
2026-04-29 18:40 22.40555 -47.65872 37923 ft 416 kts 227°
2026-04-29 18:41 22.32039 -47.74349 37926 ft 416 kts 227°
2026-04-29 18:42 22.27775 -47.78588 37928 ft 416 kts 227°
2026-04-29 18:42 22.23509 -47.82827 37923 ft 417 kts 227°
2026-04-29 18:43 22.19241 -47.87064 37927 ft 417 kts 227°
2026-04-29 18:43 22.15085 -47.91187 37922 ft 417 kts 227°
2026-04-29 18:44 22.11359 -47.94888 37933 ft 417 kts 227°
2026-04-29 18:44 22.07150 -47.99047 37928 ft 417 kts 227°
2026-04-29 18:45 22.02873 -48.03266 37938 ft 417 kts 227°
2026-04-29 18:45 21.98590 -48.07494 37933 ft 417 kts 227°
2026-04-29 18:46 21.94309 -48.11722 37934 ft 417 kts 227°
2026-04-29 18:46 21.90014 -48.15962 37929 ft 417 kts 227°
2026-04-29 18:47 21.85758 -48.20157 37939 ft 417 kts 227°
2026-04-29 18:47 21.81473 -48.24379 37937 ft 417 kts 227°
2026-04-29 18:48 21.77187 -48.28599 37938 ft 417 kts 227°
2026-04-29 18:48 21.72923 -48.32793 37934 ft 417 kts 227°
2026-04-29 18:49 21.68638 -48.37005 37933 ft 417 kts 227°
2026-04-29 18:49 21.64367 -48.41198 37931 ft 417 kts 227°
2026-04-29 18:50 21.60072 -48.45413 37934 ft 418 kts 227°
2026-04-29 18:50 21.55764 -48.49634 37917 ft 418 kts 227°
2026-04-29 18:51 21.51486 -48.53825 37915 ft 419 kts 227°
2026-04-29 18:51 21.47177 -48.58043 37916 ft 419 kts 227°
2026-04-29 18:52 21.42862 -48.62264 37891 ft 419 kts 226°
2026-04-29 18:52 21.38534 -48.66491 37891 ft 420 kts 226°
2026-04-29 18:53 21.34204 -48.70719 37887 ft 420 kts 226°
2026-04-29 18:53 21.29884 -48.74932 37885 ft 420 kts 226°
2026-04-29 18:54 21.25581 -48.79126 37888 ft 420 kts 226°
2026-04-29 18:54 21.21239 -48.83354 37886 ft 421 kts 226°
2026-04-29 18:55 21.16901 -48.87575 37881 ft 421 kts 226°
2026-04-29 18:55 21.12556 -48.91798 37884 ft 421 kts 226°
2026-04-29 18:56 21.08231 -48.95997 37887 ft 422 kts 226°
2026-04-29 18:56 21.03872 -49.00226 37885 ft 422 kts 226°
2026-04-29 18:57 20.99513 -49.04451 37885 ft 422 kts 226°
2026-04-29 18:57 20.95176 -49.08649 37885 ft 422 kts 226°
2026-04-29 18:58 20.90808 -49.12875 37885 ft 423 kts 226°
2026-04-29 18:58 20.86427 -49.17112 37887 ft 423 kts 226°
2026-04-29 18:59 20.82083 -49.21309 37885 ft 424 kts 226°
2026-04-29 18:59 20.77685 -49.25554 37889 ft 424 kts 226°
2026-04-29 19:00 20.73331 -49.29758 37888 ft 424 kts 226°
2026-04-29 19:00 20.68945 -49.33989 37889 ft 425 kts 226°
2026-04-29 19:01 20.64544 -49.38225 37888 ft 425 kts 226°
2026-04-29 19:01 20.60134 -49.42465 37885 ft 426 kts 226°
2026-04-29 19:02 20.56465 -49.45990 37884 ft 426 kts 226°
2026-04-29 19:02 20.51311 -49.50949 37889 ft 427 kts 226°
2026-04-29 19:03 20.46887 -49.55194 37893 ft 428 kts 226°
2026-04-29 19:03 20.42486 -49.59415 37892 ft 428 kts 226°
2026-04-29 19:04 20.38046 -49.63673 37884 ft 429 kts 226°
2026-04-29 19:04 20.33598 -49.67931 37890 ft 429 kts 226°
2026-04-29 19:05 20.29166 -49.72171 37887 ft 430 kts 226°
2026-04-29 19:05 20.24702 -49.76439 37891 ft 431 kts 226°
2026-04-29 19:06 20.20241 -49.80704 37893 ft 431 kts 226°
2026-04-29 19:07 20.13542 -49.87103 37891 ft 432 kts 225°
2026-04-29 19:07 20.09057 -49.91382 37888 ft 432 kts 226°
2026-04-29 19:08 20.04597 -49.95632 37888 ft 432 kts 225°
2026-04-29 19:08 20.00135 -49.99880 37892 ft 432 kts 225°
2026-04-29 19:09 19.95730 -50.04228 37895 ft 431 kts 227°
2026-04-29 19:09 19.91404 -50.08665 37889 ft 431 kts 227°
2026-04-29 19:10 19.87109 -50.13061 37893 ft 431 kts 227°
2026-04-29 19:10 19.82765 -50.17484 37899 ft 431 kts 227°
2026-04-29 19:11 19.78424 -50.21891 37902 ft 431 kts 227°
2026-04-29 19:11 19.74088 -50.26286 37902 ft 431 kts 227°
2026-04-29 19:12 19.69766 -50.30664 37908 ft 431 kts 227°
2026-04-29 19:12 19.65425 -50.35062 37907 ft 431 kts 227°
2026-04-29 19:13 19.61078 -50.39459 37906 ft 432 kts 227°
2026-04-29 19:13 19.57457 -50.43119 37907 ft 432 kts 227°
2026-04-29 19:14 19.53102 -50.47518 37899 ft 432 kts 227°
2026-04-29 19:14 19.48768 -50.51892 37898 ft 432 kts 227°
2026-04-29 19:15 19.44410 -50.56285 37899 ft 432 kts 227°
2026-04-29 19:15 19.40051 -50.60675 37907 ft 431 kts 227°
2026-04-29 19:16 19.35715 -50.65038 37905 ft 432 kts 227°
2026-04-29 19:16 19.31364 -50.69417 37907 ft 432 kts 227°
2026-04-29 19:17 19.26996 -50.73807 37907 ft 432 kts 227°
2026-04-29 19:17 19.22632 -50.78189 37907 ft 432 kts 227°
2026-04-29 19:18 19.18275 -50.82563 37915 ft 432 kts 227°
2026-04-29 19:18 19.13939 -50.86913 37915 ft 432 kts 227°
2026-04-29 19:19 19.09561 -50.91300 37914 ft 432 kts 227°
2026-04-29 19:19 19.05194 -50.95671 37915 ft 433 kts 227°
2026-04-29 19:20 19.00809 -51.00058 37915 ft 433 kts 227°
2026-04-29 19:20 18.96464 -51.04397 37917 ft 433 kts 227°
2026-04-29 19:21 18.92074 -51.08780 37916 ft 433 kts 227°
2026-04-29 19:21 18.87693 -51.13155 37921 ft 433 kts 227°
2026-04-29 19:22 18.83339 -51.17501 37923 ft 433 kts 227°
2026-04-29 19:22 18.78950 -51.21875 37935 ft 433 kts 227°
2026-04-29 19:23 18.74529 -51.26278 37934 ft 434 kts 227°
2026-04-29 19:23 18.70135 -51.30650 37934 ft 434 kts 227°
2026-04-29 19:24 18.65764 -51.34996 37934 ft 434 kts 227°
2026-04-29 19:24 18.61344 -51.39392 37935 ft 434 kts 227°
2026-04-29 19:25 18.56961 -51.43743 37930 ft 435 kts 227°
2026-04-29 19:25 18.52550 -51.48117 37933 ft 435 kts 227°
2026-04-29 19:26 18.48131 -51.52497 37945 ft 435 kts 227°
2026-04-29 19:26 18.43717 -51.56869 37938 ft 435 kts 227°
2026-04-29 19:27 18.39290 -51.61252 37939 ft 435 kts 226°
2026-04-29 19:27 18.34876 -51.65620 37945 ft 436 kts 226°
2026-04-29 19:28 18.30449 -51.69995 37943 ft 436 kts 226°
2026-04-29 19:28 18.26010 -51.74378 37941 ft 436 kts 226°
2026-04-29 19:29 18.21576 -51.78754 37940 ft 437 kts 226°
2026-04-29 19:29 18.17144 -51.83123 37935 ft 437 kts 226°
2026-04-29 19:30 18.12734 -51.87469 37942 ft 437 kts 226°
2026-04-29 19:30 18.08293 -51.91842 37949 ft 437 kts 226°
2026-04-29 19:31 18.03841 -51.96224 37940 ft 437 kts 226°
2026-04-29 19:31 17.99575 -52.00753 37940 ft 433 kts 232°
2026-04-29 19:32 17.96009 -52.05791 37944 ft 431 kts 238°
2026-04-29 19:32 17.92645 -52.10994 37946 ft 431 kts 239°
2026-04-29 19:33 17.89268 -52.16216 37944 ft 431 kts 238°
2026-04-29 19:33 17.85904 -52.21387 37948 ft 431 kts 238°
2026-04-29 19:34 17.82509 -52.26591 37943 ft 432 kts 239°
2026-04-29 19:34 17.79109 -52.31799 37940 ft 432 kts 239°
2026-04-29 19:35 17.75709 -52.37001 37942 ft 433 kts 239°
2026-04-29 19:35 17.72293 -52.42222 37942 ft 433 kts 239°
2026-04-29 19:36 17.68901 -52.47401 37943 ft 433 kts 239°
2026-04-29 19:36 17.65484 -52.52611 37946 ft 433 kts 239°
2026-04-29 19:37 17.62071 -52.57812 37937 ft 433 kts 239°
2026-04-29 19:37 17.58650 -52.63021 37934 ft 433 kts 239°
2026-04-29 19:38 17.55229 -52.68222 37934 ft 434 kts 239°
2026-04-29 19:38 17.51804 -52.73425 37938 ft 434 kts 239°
2026-04-29 19:39 17.48375 -52.78629 37933 ft 434 kts 239°
2026-04-29 19:39 17.44937 -52.83841 37939 ft 434 kts 239°
2026-04-29 19:40 17.41496 -52.89054 37930 ft 435 kts 239°
2026-04-29 19:40 17.38060 -52.94256 37938 ft 435 kts 239°
2026-04-29 19:41 17.34618 -52.99465 37941 ft 435 kts 239°
2026-04-29 19:41 17.31176 -53.04669 37935 ft 435 kts 239°
2026-04-29 19:42 17.27767 -53.09817 37934 ft 435 kts 239°
2026-04-29 19:42 17.24321 -53.15016 37935 ft 435 kts 239°
2026-04-29 19:43 17.20871 -53.20219 37935 ft 435 kts 239°
2026-04-29 19:43 17.17439 -53.25386 37934 ft 435 kts 239°
2026-04-29 19:44 17.13989 -53.30579 37933 ft 435 kts 239°
2026-04-29 19:44 17.10533 -53.35782 37933 ft 435 kts 239°
2026-04-29 19:45 17.07073 -53.40983 37935 ft 435 kts 239°
2026-04-29 19:45 17.03614 -53.46175 37934 ft 435 kts 239°
2026-04-29 19:46 17.00153 -53.51367 37932 ft 436 kts 239°
2026-04-29 19:46 16.96684 -53.56568 37932 ft 436 kts 239°
2026-04-29 19:47 16.93210 -53.61776 37929 ft 436 kts 239°
2026-04-29 19:47 16.89737 -53.66976 37931 ft 437 kts 239°
2026-04-29 19:48 16.86275 -53.72153 37935 ft 437 kts 239°
2026-04-29 19:48 16.82791 -53.77361 37934 ft 437 kts 239°
2026-04-29 19:49 16.79320 -53.82545 37935 ft 438 kts 239°
2026-04-29 19:49 16.75829 -53.87755 37934 ft 438 kts 239°
2026-04-29 19:50 16.72335 -53.92970 37933 ft 439 kts 239°
2026-04-29 19:50 16.68832 -53.98191 37934 ft 439 kts 239°
2026-04-29 19:51 16.65328 -54.03407 37933 ft 439 kts 239°
2026-04-29 19:51 16.62413 -54.07743 37929 ft 439 kts 239°
2026-04-29 19:52 16.58907 -54.12955 37932 ft 440 kts 239°
2026-04-29 19:52 16.55394 -54.18174 37936 ft 440 kts 239°
2026-04-29 19:53 16.51881 -54.23398 37935 ft 440 kts 239°
2026-04-29 19:53 16.48365 -54.28620 37935 ft 440 kts 239°
2026-04-29 19:54 16.43058 -54.36489 37932 ft 440 kts 239°
2026-04-29 19:54 16.39531 -54.41707 37933 ft 440 kts 239°
2026-04-29 19:55 16.36007 -54.46921 37938 ft 440 kts 239°
2026-04-29 19:55 16.32480 -54.52140 37942 ft 440 kts 239°
2026-04-29 19:56 16.28952 -54.57355 37941 ft 440 kts 239°
2026-04-29 19:56 16.25425 -54.62562 37943 ft 440 kts 239°
2026-04-29 19:57 16.22467 -54.66925 37944 ft 440 kts 239°
2026-04-29 19:57 16.18365 -54.72974 37944 ft 440 kts 239°
2026-04-29 19:58 16.14835 -54.78177 37943 ft 440 kts 239°
2026-04-29 19:58 16.11299 -54.83384 37942 ft 440 kts 239°
2026-04-29 19:59 16.07767 -54.88584 37946 ft 440 kts 239°
2026-04-29 19:59 16.04230 -54.93787 37942 ft 440 kts 239°
2026-04-29 20:00 16.00715 -54.98953 37944 ft 440 kts 239°
2026-04-29 20:00 15.97308 -55.04246 37930 ft 440 kts 242°
2026-04-29 20:01 15.94140 -55.09694 37934 ft 441 kts 243°
2026-04-29 20:01 15.90958 -55.15157 37937 ft 441 kts 242°
2026-04-29 20:02 15.87749 -55.20598 37946 ft 442 kts 242°
2026-04-29 20:02 15.85073 -55.25113 37954 ft 442 kts 242°
2026-04-29 20:03 15.81302 -55.31466 37953 ft 442 kts 242°
2026-04-29 20:03 15.78079 -55.36892 37937 ft 442 kts 242°
2026-04-29 20:04 15.74854 -55.42319 37932 ft 442 kts 242°
2026-04-29 20:04 15.71627 -55.47744 37934 ft 442 kts 242°
2026-04-29 20:05 15.68395 -55.53169 37937 ft 442 kts 242°
2026-04-29 20:05 15.65162 -55.58594 37932 ft 442 kts 242°
2026-04-29 20:06 15.61934 -55.64012 37943 ft 441 kts 242°
2026-04-29 20:06 15.58703 -55.69429 37953 ft 441 kts 242°
2026-04-29 20:07 15.55468 -55.74843 37954 ft 441 kts 242°
2026-04-29 20:07 15.52227 -55.80258 37951 ft 442 kts 242°
2026-04-29 20:08 15.49530 -55.84763 37955 ft 442 kts 242°
2026-04-29 20:08 15.45765 -55.91055 37957 ft 442 kts 242°
2026-04-29 20:09 15.42529 -55.96466 37952 ft 442 kts 242°
2026-04-29 20:09 15.39288 -56.01873 37949 ft 442 kts 242°
2026-04-29 20:10 15.36044 -56.07276 37952 ft 441 kts 242°
2026-04-29 20:10 15.32797 -56.12679 37953 ft 442 kts 242°
2026-04-29 20:11 15.29551 -56.18082 37948 ft 441 kts 242°
2026-04-29 20:11 15.26305 -56.23479 37946 ft 442 kts 242°
2026-04-29 20:12 15.23051 -56.28879 37955 ft 441 kts 242°
2026-04-29 20:12 15.19803 -56.34274 37951 ft 442 kts 242°
2026-04-29 20:13 15.17099 -56.38755 37952 ft 442 kts 242°
2026-04-29 20:13 15.13292 -56.45068 37937 ft 442 kts 242°
2026-04-29 20:14 15.10034 -56.50468 37933 ft 443 kts 242°
2026-04-29 20:14 15.06767 -56.55875 37937 ft 443 kts 242°
2026-04-29 20:15 15.03504 -56.61276 37934 ft 443 kts 242°
2026-04-29 20:15 15.00236 -56.66677 37934 ft 443 kts 242°
2026-04-29 20:16 14.96968 -56.72079 37931 ft 443 kts 242°
2026-04-29 20:16 14.93699 -56.77477 37935 ft 443 kts 242°
2026-04-29 20:17 14.90426 -56.82872 37931 ft 443 kts 243°
2026-04-29 20:17 14.87210 -56.88174 37934 ft 443 kts 243°
2026-04-29 20:18 14.83932 -56.93575 37933 ft 443 kts 243°
2026-04-29 20:18 14.80655 -56.98970 37931 ft 443 kts 243°
2026-04-29 20:19 14.77382 -57.04357 37932 ft 443 kts 243°
2026-04-29 20:19 14.74103 -57.09749 37936 ft 443 kts 243°
2026-04-29 20:20 14.70826 -57.15136 37934 ft 443 kts 243°
2026-04-29 20:20 14.67567 -57.20491 37929 ft 443 kts 243°
2026-04-29 20:21 14.64281 -57.25879 37937 ft 443 kts 243°
2026-04-29 20:21 14.60997 -57.31261 37917 ft 443 kts 243°
2026-04-29 20:22 14.57709 -57.36650 37918 ft 443 kts 243°
2026-04-29 20:22 14.54421 -57.42033 37913 ft 443 kts 243°
2026-04-29 20:23 14.51129 -57.47420 37915 ft 443 kts 243°
2026-04-29 20:23 14.47839 -57.52796 37916 ft 443 kts 243°
2026-04-29 20:24 14.44548 -57.58175 37914 ft 443 kts 243°
2026-04-29 20:24 14.41257 -57.63551 37914 ft 443 kts 243°
2026-04-29 20:25 14.37983 -57.68895 37912 ft 443 kts 243°
2026-04-29 20:25 14.34684 -57.74275 37914 ft 444 kts 243°
2026-04-29 20:26 14.31380 -57.79659 37917 ft 444 kts 243°
2026-04-29 20:26 14.28078 -57.85036 37918 ft 444 kts 243°
2026-04-29 20:27 14.25869 -57.88633 37914 ft 444 kts 243°
2026-04-29 20:27 14.21467 -57.95795 37916 ft 444 kts 243°
2026-04-29 20:28 14.18163 -58.01170 37915 ft 444 kts 243°
2026-04-29 20:28 14.14855 -58.06544 37915 ft 444 kts 243°
2026-04-29 20:29 14.11540 -58.11924 37915 ft 444 kts 243°
2026-04-29 20:29 14.08223 -58.17305 37917 ft 444 kts 243°
2026-04-29 20:30 14.05472 -58.21761 37917 ft 444 kts 243°
2026-04-29 20:30 14.02200 -58.27067 37915 ft 444 kts 243°
2026-04-29 20:31 14.00548 -58.29745 37810 ft 442 kts 243°
2026-04-29 20:31 13.98897 -58.32421 37254 ft 443 kts 243°
2026-04-29 20:31 13.97238 -58.35112 36340 ft 447 kts 243°
2026-04-29 20:31 13.95558 -58.37844 35101 ft 454 kts 242°
2026-04-29 20:32 13.93850 -58.40625 33555 ft 465 kts 242°
2026-04-29 20:32 13.92129 -58.43429 31950 ft 474 kts 241°
2026-04-29 20:32 13.90358 -58.46314 30505 ft 478 kts 240°
2026-04-29 20:32 13.88583 -58.49202 29463 ft 474 kts 240°
2026-04-29 20:33 13.86831 -58.52053 28707 ft 468 kts 239°
2026-04-29 20:33 13.85105 -58.54855 28191 ft 459 kts 239°
2026-04-29 20:33 13.83420 -58.57587 27917 ft 446 kts 239°
2026-04-29 20:33 13.81766 -58.60262 27660 ft 443 kts 238°
2026-04-29 20:34 13.80106 -58.62943 27134 ft 445 kts 238°
2026-04-29 20:34 13.78445 -58.65619 26562 ft 443 kts 238°
2026-04-29 20:34 13.76788 -58.68291 25983 ft 439 kts 238°
2026-04-29 20:34 13.75156 -58.70922 25412 ft 433 kts 238°
2026-04-29 20:35 13.73547 -58.73515 24838 ft 427 kts 237°
2026-04-29 20:35 13.71959 -58.76074 24285 ft 421 kts 237°
2026-04-29 20:35 13.70397 -58.78591 23740 ft 415 kts 237°
2026-04-29 20:35 13.68856 -58.81072 23190 ft 409 kts 237°
2026-04-29 20:36 13.67334 -58.83520 22651 ft 403 kts 237°
2026-04-29 20:36 13.65833 -58.85929 22104 ft 397 kts 237°
2026-04-29 20:36 13.64374 -58.88269 21589 ft 391 kts 237°
2026-04-29 20:36 13.62898 -58.90634 21052 ft 385 kts 237°
2026-04-29 20:37 13.61434 -58.92977 20535 ft 400 kts 237°
2026-04-29 20:37 13.59894 -58.95445 19971 ft 416 kts 237°
2026-04-29 20:37 13.58323 -58.97965 19400 ft 420 kts 237°
2026-04-29 20:37 13.56747 -59.00491 18829 ft 417 kts 237°
2026-04-29 20:38 13.55192 -59.02983 18245 ft 411 kts 237°
2026-04-29 20:38 13.53664 -59.05432 17685 ft 402 kts 237°
2026-04-29 20:38 13.52169 -59.07827 17124 ft 393 kts 237°
2026-04-29 20:38 13.50705 -59.10169 16578 ft 385 kts 237°
2026-04-29 20:39 13.49272 -59.12460 16053 ft 378 kts 237°
2026-04-29 20:39 13.47866 -59.14709 15517 ft 370 kts 237°
2026-04-29 20:39 13.46488 -59.16914 15005 ft 364 kts 237°
2026-04-29 20:39 13.45133 -59.19080 14483 ft 357 kts 237°
2026-04-29 20:40 13.43765 -59.21264 13976 ft 376 kts 237°
2026-04-29 20:40 13.42311 -59.23588 13426 ft 394 kts 237°
2026-04-29 20:40 13.40841 -59.25938 12870 ft 397 kts 237°
2026-04-29 20:40 13.39336 -59.28344 12298 ft 393 kts 237°
2026-04-29 20:41 13.37875 -59.30683 11745 ft 384 kts 237°
2026-04-29 20:41 13.36449 -59.32964 11199 ft 374 kts 237°
2026-04-29 20:41 13.35063 -59.35182 10676 ft 364 kts 237°
2026-04-29 20:41 13.33718 -59.37334 10353 ft 350 kts 237°
2026-04-29 20:42 13.32438 -59.39380 10174 ft 331 kts 237°
2026-04-29 20:42 13.31240 -59.41295 10000 ft 314 kts 236°
2026-04-29 20:42 13.30063 -59.43172 9557 ft 306 kts 236°
2026-04-29 20:42 13.28934 -59.44972 9325 ft 293 kts 236°
2026-04-29 20:43 13.27834 -59.46727 9208 ft 298 kts 236°
2026-04-29 20:43 13.26711 -59.48517 9080 ft 298 kts 236°
2026-04-29 20:43 13.25594 -59.50300 8964 ft 296 kts 236°
2026-04-29 20:43 13.24479 -59.52082 8609 ft 297 kts 236°
2026-04-29 20:44 13.23368 -59.53856 8277 ft 291 kts 236°
2026-04-29 20:44 13.22284 -59.55587 7864 ft 286 kts 236°
2026-04-29 20:44 13.21226 -59.57276 7488 ft 276 kts 236°
2026-04-29 20:44 13.20203 -59.58911 7135 ft 266 kts 236°
2026-04-29 20:45 13.19218 -59.60486 6792 ft 263 kts 236°
2026-04-29 20:45 13.18163 -59.62162 6515 ft 291 kts 236°
2026-04-29 20:45 13.17057 -59.63921 6461 ft 290 kts 236°
2026-04-29 20:45 13.15973 -59.65649 6195 ft 286 kts 236°
2026-04-29 20:46 13.14901 -59.67359 5683 ft 284 kts 236°
2026-04-29 20:46 13.13833 -59.69052 5051 ft 281 kts 234°
2026-04-29 20:46 13.12437 -59.70428 4358 ft 277 kts 208°
2026-04-29 20:46 13.10657 -59.71016 3973 ft 262 kts 181°
2026-04-29 20:47 13.08891 -59.70763 3683 ft 256 kts 162°
2026-04-29 20:47 13.07209 -59.70211 3323 ft 252 kts 159°
2026-04-29 20:47 13.05517 -59.69632 3193 ft 253 kts 160°
2026-04-29 20:47 13.04057 -59.68829 3158 ft 227 kts 135°
2026-04-29 20:48 13.03265 -59.67534 3160 ft 216 kts 105°
2026-04-29 20:48 13.03238 -59.65993 3154 ft 219 kts 80°
2026-04-29 20:48 13.03618 -59.64478 2910 ft 218 kts 76°
2026-04-29 20:48 13.04033 -59.63014 2595 ft 208 kts 76°
2026-04-29 20:49 13.04420 -59.61638 2315 ft 194 kts 76°
2026-04-29 20:49 13.04750 -59.60341 2080 ft 180 kts 78°
2026-04-29 20:49 13.05043 -59.59142 1845 ft 166 kts 78°
2026-04-29 20:49 13.05308 -59.58054 1626 ft 149 kts 79°
2026-04-29 20:50 13.05557 -59.57024 1438 ft 152 kts 79°
2026-04-29 20:50 13.05809 -59.56001 1246 ft 147 kts 79°
2026-04-29 20:50 13.06062 -59.54971 1035 ft 145 kts 79°
2026-04-29 20:50 13.06308 -59.53950 840 ft 151 kts 80°
2026-04-29 20:51 13.06560 -59.52929 653 ft 147 kts 79°
2026-04-29 20:51 13.06810 -59.51901 451 ft 146 kts 78°
2026-04-29 20:51 13.07060 -59.50872 254 ft 148 kts 80°
2026-04-29 20:51 13.07275 -59.49942 183 ft 100 kts 74°
2026-04-29 20:52 13.07411 -59.49430 181 ft 66 kts 75°
2026-04-29 20:52 13.07478 -59.49157 181 ft 0 kts 76°
2026-04-29 20:52 13.07480 -59.49150 181 ft 2 kts 76°
2026-04-29 20:52 13.07495 -59.49092 181 ft 16 kts 75°
2026-04-29 20:53 13.07544 -59.48995 181 ft 5 kts 36°
2026-04-29 20:53 13.07562 -59.48984 181 ft 4 kts 32°
2026-04-29 20:53 13.07581 -59.48988 181 ft 3 kts 353°
2026-04-29 20:53 13.07608 -59.48994 181 ft 5 kts 349°
2026-04-29 20:54 13.07696 -59.48997 182 ft 8 kts
2026-04-29 20:54 13.07734 -59.49005 182 ft 9 kts 347°
2026-04-29 20:54 13.07761 -59.49011 182 ft 2 kts 347°
2026-04-29 20:55 13.07777 -59.49015 182 ft 0 kts 347°